Time,TemperatureF,DewpointF,PressureIn,WindDirection,WindDirectionDegrees,WindSpeedMPH,WindSpeedGustMPH,Humidity,HourlyPrecipIn,Conditions,Clouds,dailyrainin,SoftwareType,DateUTC
2013-01-08 00:04:00,40.7,27.1,29.93,NE,38,0.0,0.0,58,0.00,,,0.00,Wunderground v.1.15,2013-01-08 07:04:00,
2013-01-08 00:09:00,40.6,27.0,29.93,NE,38,0.0,0.0,58,0.00,,,0.00,Wunderground v.1.15,2013-01-08 07:09:00,
2013-01-08 00:15:00,40.5,26.9,29.93,NE,38,0.0,0.0,58,0.00,,,0.00,Wunderground v.1.15,2013-01-08 07:15:00,
2013-01-08 00:20:00,40.5,26.4,29.93,NE,38,0.0,0.0,57,0.00,,,0.00,Wunderground v.1.15,2013-01-08 07:20:00,
2013-01-08 00:26:00,40.4,26.8,29.93,NE,38,0.0,0.0,58,0.00,,,0.00,Wunderground v.1.15,2013-01-08 07:26:00,
2013-01-08 00:31:00,40.0,26.4,29.95,East,82,0.0,2.0,58,0.00,,,0.00,Wunderground v.1.15,2013-01-08 07:31:00,
2013-01-08 00:36:00,39.5,27.2,29.95,East,95,2.0,5.0,61,0.00,,,0.00,Wunderground v.1.15,2013-01-08 07:36:00,
2013-01-08 00:42:00,39.3,27.7,29.95,East,95,1.0,3.0,63,0.00,,,0.00,Wunderground v.1.15,2013-01-08 07:42:00,
2013-01-08 00:47:00,39.3,27.7,29.94,East,95,0.0,3.0,63,0.00,,,0.00,Wunderground v.1.15,2013-01-08 07:47:00,
2013-01-08 00:53:00,39.2,27.7,29.95,East,95,0.0,0.0,63,0.00,,,0.00,Wunderground v.1.15,2013-01-08 07:53:00,
2013-01-08 00:59:00,39.0,27.8,29.95,East,95,0.0,0.0,64,0.00,,,0.00,Wunderground v.1.15,2013-01-08 07:59:00,
2013-01-08 01:04:00,38.8,27.7,29.94,East,95,0.0,0.0,64,0.00,,,0.00,Wunderground v.1.15,2013-01-08 08:04:00,
2013-01-08 01:10:00,38.3,27.2,29.94,East,95,0.0,0.0,64,0.00,,,0.00,Wunderground v.1.15,2013-01-08 08:10:00,
2013-01-08 01:16:00,37.6,26.9,29.94,East,95,2.0,4.0,65,0.00,,,0.00,Wunderground v.1.15,2013-01-08 08:16:00,
2013-01-08 01:21:00,37.2,27.2,29.94,East,95,0.0,2.0,67,0.00,,,0.00,Wunderground v.1.15,2013-01-08 08:21:00,
2013-01-08 01:26:00,37.0,27.1,29.95,East,95,0.0,4.0,67,0.00,,,0.00,Wunderground v.1.15,2013-01-08 08:26:00,
2013-01-08 01:32:00,37.0,27.4,29.95,East,95,1.0,2.0,68,0.00,,,0.00,Wunderground v.1.15,2013-01-08 08:32:00,
2013-01-08 01:37:00,37.3,27.3,29.95,East,95,4.0,4.0,67,0.00,,,0.00,Wunderground v.1.15,2013-01-08 08:37:00,
2013-01-08 01:43:00,37.3,27.3,29.95,East,95,1.0,4.0,67,0.00,,,0.00,Wunderground v.1.15,2013-01-08 08:43:00,
2013-01-08 01:48:00,37.3,27.3,29.95,East,96,2.0,4.0,67,0.00,,,0.00,Wunderground v.1.15,2013-01-08 08:48:00,
2013-01-08 01:54:00,37.2,27.6,29.95,East,96,0.0,2.0,68,0.00,,,0.00,Wunderground v.1.15,2013-01-08 08:54:00,
2013-01-08 01:59:00,37.1,27.5,29.95,East,95,0.0,2.0,68,0.00,,,0.00,Wunderground v.1.15,2013-01-08 08:59:00,
2013-01-08 02:04:00,37.0,27.8,29.95,East,95,2.0,5.0,69,0.00,,,0.00,Wunderground v.1.15,2013-01-08 09:04:00,
2013-01-08 02:09:00,36.8,27.6,29.95,East,96,4.0,5.0,69,0.00,,,0.00,Wunderground v.1.15,2013-01-08 09:09:00,
2013-01-08 02:14:00,36.8,27.6,29.95,East,96,0.0,4.0,69,0.00,,,0.00,Wunderground v.1.15,2013-01-08 09:14:00,
2013-01-08 02:19:00,36.8,27.9,29.95,East,96,0.0,4.0,70,0.00,,,0.00,Wunderground v.1.15,2013-01-08 09:19:00,
2013-01-08 02:24:00,36.5,27.3,29.95,East,95,0.0,1.0,69,0.00,,,0.00,Wunderground v.1.15,2013-01-08 09:24:00,
2013-01-08 02:29:00,36.0,27.2,29.95,East,95,0.0,1.0,70,0.00,,,0.00,Wunderground v.1.15,2013-01-08 09:29:00,
2013-01-08 02:34:00,35.6,27.1,29.95,East,95,0.0,0.0,71,0.00,,,0.00,Wunderground v.1.15,2013-01-08 09:34:00,
2013-01-08 02:39:00,35.3,26.8,29.95,East,96,0.0,0.0,71,0.00,,,0.00,Wunderground v.1.15,2013-01-08 09:39:00,
2013-01-08 02:44:00,35.0,26.5,29.95,East,96,0.0,0.0,71,0.00,,,0.00,Wunderground v.1.15,2013-01-08 09:44:00,
2013-01-08 02:49:00,34.9,27.1,29.95,East,96,1.0,5.0,73,0.00,,,0.00,Wunderground v.1.15,2013-01-08 09:49:00,
2013-01-08 02:54:00,35.3,27.5,29.95,East,96,2.0,4.0,73,0.00,,,0.00,Wunderground v.1.15,2013-01-08 09:54:00,
2013-01-08 02:59:00,35.7,27.9,29.96,East,96,0.0,4.0,73,0.00,,,0.00,Wunderground v.1.15,2013-01-08 09:59:00,
2013-01-08 03:04:00,35.9,27.7,29.96,East,96,0.0,1.0,72,0.00,,,0.00,Wunderground v.1.15,2013-01-08 10:04:00,
2013-01-08 03:09:00,35.9,27.7,29.97,East,96,2.0,5.0,72,0.00,,,0.00,Wunderground v.1.15,2013-01-08 10:09:00,
2013-01-08 03:14:00,35.8,27.7,29.97,East,96,0.0,1.0,72,0.00,,,0.00,Wunderground v.1.15,2013-01-08 10:14:00,
2013-01-08 03:19:00,35.5,27.0,29.97,East,96,0.0,1.0,71,0.00,,,0.00,Wunderground v.1.15,2013-01-08 10:19:00,
2013-01-08 03:24:00,34.9,26.8,29.96,East,96,0.0,0.0,72,0.00,,,0.00,Wunderground v.1.15,2013-01-08 10:24:00,
2013-01-08 03:29:00,34.5,26.7,29.96,East,96,2.0,2.0,73,0.00,,,0.00,Wunderground v.1.15,2013-01-08 10:29:00,
2013-01-08 03:34:00,34.0,26.6,29.96,East,96,1.0,6.0,74,0.00,,,0.00,Wunderground v.1.15,2013-01-08 10:34:00,
2013-01-08 03:39:00,34.0,26.9,29.97,East,96,0.0,6.0,75,0.00,,,0.00,Wunderground v.1.15,2013-01-08 10:39:00,
2013-01-08 03:44:00,34.0,26.9,29.97,East,96,4.0,4.0,75,0.00,,,0.00,Wunderground v.1.15,2013-01-08 10:44:00,
2013-01-08 03:49:00,34.0,26.6,29.96,East,96,4.0,5.0,74,0.00,,,0.00,Wunderground v.1.15,2013-01-08 10:49:00,
2013-01-08 03:54:00,34.2,27.1,29.97,East,96,0.0,4.0,75,0.00,,,0.00,Wunderground v.1.15,2013-01-08 10:54:00,
2013-01-08 03:59:00,34.4,27.0,29.96,East,96,0.0,4.0,74,0.00,,,0.00,Wunderground v.1.15,2013-01-08 10:59:00,
2013-01-08 04:04:00,34.5,27.1,29.96,East,96,0.0,1.0,74,0.00,,,0.00,Wunderground v.1.15,2013-01-08 11:04:00,
2013-01-08 04:09:00,34.5,26.7,29.96,East,96,0.0,1.0,73,0.00,,,0.00,Wunderground v.1.15,2013-01-08 11:09:00,
2013-01-08 04:14:00,34.1,26.3,29.97,East,96,0.0,0.0,73,0.00,,,0.00,Wunderground v.1.15,2013-01-08 11:14:00,
2013-01-08 04:20:00,33.7,26.0,29.96,East,96,0.0,0.0,73,0.00,,,0.00,Wunderground v.1.15,2013-01-08 11:20:00,
2013-01-08 04:25:00,33.3,25.9,29.97,East,96,0.0,0.0,74,0.00,,,0.00,Wunderground v.1.15,2013-01-08 11:25:00,
2013-01-08 04:30:00,33.0,25.6,29.96,East,96,0.0,0.0,74,0.00,,,0.00,Wunderground v.1.15,2013-01-08 11:30:00,
2013-01-08 04:35:00,32.6,25.6,29.96,East,96,0.0,0.0,75,0.00,,,0.00,Wunderground v.1.15,2013-01-08 11:35:00,
2013-01-08 04:40:00,32.5,25.8,29.96,East,96,0.0,0.0,76,0.00,,,0.00,Wunderground v.1.15,2013-01-08 11:40:00,
2013-01-08 04:45:00,32.3,25.6,29.96,East,96,0.0,0.0,76,0.00,,,0.00,Wunderground v.1.15,2013-01-08 11:45:00,
2013-01-08 04:50:00,32.1,25.7,29.96,East,96,0.0,0.0,77,0.00,,,0.00,Wunderground v.1.15,2013-01-08 11:50:00,
2013-01-08 04:55:00,31.9,25.5,29.96,East,96,0.0,0.0,77,0.00,,,0.00,Wunderground v.1.15,2013-01-08 11:55:00,
2013-01-08 05:00:00,31.7,25.3,29.95,East,96,0.0,0.0,77,0.00,,,0.00,Wunderground v.1.15,2013-01-08 12:00:00,
2013-01-08 05:05:00,31.6,25.5,29.95,East,96,0.0,0.0,78,0.00,,,0.00,Wunderground v.1.15,2013-01-08 12:05:00,
2013-01-08 05:10:00,31.5,25.4,29.95,East,96,0.0,0.0,78,0.00,,,0.00,Wunderground v.1.15,2013-01-08 12:10:00,
2013-01-08 05:15:00,31.5,25.7,29.95,East,96,0.0,0.0,79,0.00,,,0.00,Wunderground v.1.15,2013-01-08 12:15:00,
2013-01-08 05:20:00,31.4,25.3,29.96,East,96,0.0,0.0,78,0.00,,,0.00,Wunderground v.1.15,2013-01-08 12:20:00,
2013-01-08 05:25:00,31.2,25.4,29.95,East,96,0.0,0.0,79,0.00,,,0.00,Wunderground v.1.15,2013-01-08 12:25:00,
2013-01-08 05:30:00,31.3,25.5,29.95,East,96,0.0,0.0,79,0.00,,,0.00,Wunderground v.1.15,2013-01-08 12:30:00,
2013-01-08 05:35:00,31.2,25.4,29.95,East,96,0.0,0.0,79,0.00,,,0.00,Wunderground v.1.15,2013-01-08 12:35:00,
2013-01-08 05:40:00,31.0,24.9,29.95,East,96,0.0,0.0,78,0.00,,,0.00,Wunderground v.1.15,2013-01-08 12:40:00,
2013-01-08 05:45:00,30.7,25.0,29.96,East,96,0.0,0.0,79,0.00,,,0.00,Wunderground v.1.15,2013-01-08 12:45:00,
2013-01-08 05:50:00,30.6,25.5,29.96,East,96,0.0,0.0,81,0.00,,,0.00,Wunderground v.1.15,2013-01-08 12:50:00,
2013-01-08 05:55:00,30.6,25.2,29.97,East,96,0.0,1.0,80,0.00,,,0.00,Wunderground v.1.15,2013-01-08 12:55:00,
2013-01-08 06:00:00,30.5,25.1,29.97,East,96,0.0,0.0,80,0.00,,,0.00,Wunderground v.1.15,2013-01-08 13:00:00,
2013-01-08 06:05:00,30.5,25.4,29.98,East,96,0.0,0.0,81,0.00,,,0.00,Wunderground v.1.15,2013-01-08 13:05:00,
2013-01-08 06:10:00,30.5,25.4,29.98,East,96,0.0,0.0,81,0.00,,,0.00,Wunderground v.1.15,2013-01-08 13:10:00,
2013-01-08 06:15:00,30.4,25.3,29.99,East,96,0.0,0.0,81,0.00,,,0.00,Wunderground v.1.15,2013-01-08 13:15:00,
2013-01-08 06:20:00,30.3,25.2,29.99,East,96,0.0,0.0,81,0.00,,,0.00,Wunderground v.1.15,2013-01-08 13:20:00,
2013-01-08 06:25:00,30.2,25.1,29.99,East,96,0.0,0.0,81,0.00,,,0.00,Wunderground v.1.15,2013-01-08 13:25:00,
2013-01-08 06:30:00,30.1,25.0,29.99,East,96,0.0,0.0,81,0.00,,,0.00,Wunderground v.1.15,2013-01-08 13:30:00,
2013-01-08 06:35:00,30.1,25.3,29.99,East,96,1.0,2.0,82,0.00,,,0.00,Wunderground v.1.15,2013-01-08 13:35:00,
2013-01-08 06:40:00,30.2,25.4,30.00,East,96,0.0,0.0,82,0.00,,,0.00,Wunderground v.1.15,2013-01-08 13:40:00,
2013-01-08 06:45:00,30.3,25.5,29.99,East,96,0.0,0.0,82,0.00,,,0.00,Wunderground v.1.15,2013-01-08 13:45:00,
2013-01-08 06:50:00,30.4,25.6,30.00,East,96,2.0,4.0,82,0.00,,,0.00,Wunderground v.1.15,2013-01-08 13:50:00,
2013-01-08 06:56:00,30.6,25.8,30.00,East,96,0.0,4.0,82,0.00,,,0.00,Wunderground v.1.15,2013-01-08 13:56:00,
2013-01-08 07:01:00,30.7,25.9,30.00,East,96,2.0,4.0,82,0.00,,,0.00,Wunderground v.1.15,2013-01-08 14:01:00,
2013-01-08 07:06:00,30.9,26.1,30.01,East,96,4.0,4.0,82,0.00,,,0.00,Wunderground v.1.15,2013-01-08 14:06:00,
2013-01-08 07:11:00,31.5,26.3,30.01,East,96,4.0,5.0,81,0.00,,,0.00,Wunderground v.1.15,2013-01-08 14:11:00,
2013-01-08 07:16:00,32.1,26.3,30.01,East,96,4.0,5.0,79,0.00,,,0.00,Wunderground v.1.15,2013-01-08 14:16:00,
2013-01-08 07:21:00,31.7,25.6,30.01,East,96,0.0,2.0,78,0.00,,,0.00,Wunderground v.1.15,2013-01-08 14:21:00,
2013-01-08 07:26:00,31.3,25.5,30.02,East,96,2.0,4.0,79,0.00,,,0.00,Wunderground v.1.15,2013-01-08 14:26:00,
2013-01-08 07:31:00,31.0,25.2,30.02,East,96,2.0,4.0,79,0.00,,,0.00,Wunderground v.1.15,2013-01-08 14:31:00,
2013-01-08 07:36:00,30.9,25.5,30.02,East,96,0.0,4.0,80,0.00,,,0.00,Wunderground v.1.15,2013-01-08 14:36:00,
2013-01-08 07:41:00,30.7,25.3,30.02,East,96,0.0,1.0,80,0.00,,,0.00,Wunderground v.1.15,2013-01-08 14:41:00,
2013-01-08 07:46:00,30.6,25.2,30.03,East,96,0.0,1.0,80,0.00,,,0.00,Wunderground v.1.15,2013-01-08 14:46:00,
2013-01-08 07:51:00,30.7,25.3,30.03,East,96,0.0,2.0,80,0.00,,,0.00,Wunderground v.1.15,2013-01-08 14:51:00,
2013-01-08 07:56:00,31.0,25.9,30.04,East,96,0.0,2.0,81,0.00,,,0.00,Wunderground v.1.15,2013-01-08 14:56:00,
2013-01-08 08:01:00,31.5,26.3,30.04,East,96,0.0,0.0,81,0.00,,,0.00,Wunderground v.1.15,2013-01-08 15:01:00,
2013-01-08 08:06:00,32.1,26.6,30.04,East,96,0.0,0.0,80,0.00,,,0.00,Wunderground v.1.15,2013-01-08 15:06:00,
2013-01-08 08:11:00,32.8,27.0,30.05,East,96,0.0,0.0,79,0.00,,,0.00,Wunderground v.1.15,2013-01-08 15:11:00,
2013-01-08 08:16:00,33.5,27.4,30.05,East,96,0.0,1.0,78,0.00,,,0.00,Wunderground v.1.15,2013-01-08 15:16:00,
2013-01-08 08:21:00,34.2,27.4,30.06,East,96,0.0,0.0,76,0.00,,,0.00,Wunderground v.1.15,2013-01-08 15:21:00,
2013-01-08 08:26:00,34.9,27.8,30.06,East,96,0.0,2.0,75,0.00,,,0.00,Wunderground v.1.15,2013-01-08 15:26:00,
2013-01-08 08:31:00,35.6,27.8,30.07,East,96,0.0,0.0,73,0.00,,,0.00,Wunderground v.1.15,2013-01-08 15:31:00,
2013-01-08 08:36:00,36.2,28.0,30.06,East,96,0.0,0.0,72,0.00,,,0.00,Wunderground v.1.15,2013-01-08 15:36:00,
2013-01-08 08:41:00,36.9,28.0,30.07,East,96,0.0,0.0,70,0.00,,,0.00,Wunderground v.1.15,2013-01-08 15:41:00,
2013-01-08 08:46:00,37.7,28.4,30.06,East,96,0.0,0.0,69,0.00,,,0.00,Wunderground v.1.15,2013-01-08 15:46:00,
2013-01-08 08:51:00,38.7,29.0,30.07,East,96,0.0,0.0,68,0.00,,,0.00,Wunderground v.1.15,2013-01-08 15:51:00,
2013-01-08 08:56:00,39.7,29.3,30.07,East,96,0.0,0.0,66,0.00,,,0.00,Wunderground v.1.15,2013-01-08 15:56:00,
2013-01-08 09:01:00,40.6,29.4,30.07,East,96,0.0,0.0,64,0.00,,,0.00,Wunderground v.1.15,2013-01-08 16:01:00,
2013-01-08 09:06:00,41.3,29.3,30.07,East,96,0.0,0.0,62,0.00,,,0.00,Wunderground v.1.15,2013-01-08 16:06:00,
2013-01-08 09:11:00,41.8,29.3,30.07,East,96,0.0,0.0,61,0.00,,,0.00,Wunderground v.1.15,2013-01-08 16:11:00,
2013-01-08 09:16:00,42.2,28.9,30.07,East,96,2.0,5.0,59,0.00,,,0.00,Wunderground v.1.15,2013-01-08 16:16:00,
2013-01-08 09:21:00,42.1,28.8,30.07,East,96,1.0,5.0,59,0.00,,,0.00,Wunderground v.1.15,2013-01-08 16:21:00,
2013-01-08 09:26:00,42.1,28.8,30.07,East,96,2.0,5.0,59,0.00,,,0.00,Wunderground v.1.15,2013-01-08 16:26:00,
2013-01-08 09:31:00,42.4,28.7,30.08,East,96,1.0,5.0,58,0.00,,,0.00,Wunderground v.1.15,2013-01-08 16:31:00,
2013-01-08 09:36:00,42.7,28.9,30.08,East,96,5.0,5.0,58,0.00,,,0.00,Wunderground v.1.15,2013-01-08 16:36:00,
2013-01-08 09:41:00,43.0,28.8,30.08,East,96,2.0,6.0,57,0.00,,,0.00,Wunderground v.1.15,2013-01-08 16:41:00,
2013-01-08 09:46:00,43.5,28.8,30.08,East,95,5.0,6.0,56,0.00,,,0.00,Wunderground v.1.15,2013-01-08 16:46:00,
2013-01-08 09:51:00,43.9,28.8,30.08,East,95,4.0,5.0,55,0.00,,,0.00,Wunderground v.1.15,2013-01-08 16:51:00,
2013-01-08 09:56:00,44.5,28.9,30.09,East,95,1.0,5.0,54,0.00,,,0.00,Wunderground v.1.15,2013-01-08 16:56:00,
2013-01-08 10:01:00,45.2,29.1,30.09,East,95,4.0,5.0,53,0.00,,,0.00,Wunderground v.1.15,2013-01-08 17:01:00,
2013-01-08 10:06:00,45.8,29.2,30.08,East,95,1.0,5.0,52,0.00,,,0.00,Wunderground v.1.15,2013-01-08 17:06:00,
2013-01-08 10:11:00,46.6,29.4,30.09,East,95,2.0,2.0,51,0.00,,,0.00,Wunderground v.1.15,2013-01-08 17:11:00,
2013-01-08 10:16:00,47.1,28.4,30.09,East,95,1.0,4.0,48,0.00,,,0.00,Wunderground v.1.15,2013-01-08 17:16:00,
2013-01-08 10:21:00,47.5,28.8,30.09,East,95,0.0,4.0,48,0.00,,,0.00,Wunderground v.1.15,2013-01-08 17:21:00,
2013-01-08 10:26:00,47.8,28.5,30.09,East,95,1.0,5.0,47,0.00,,,0.00,Wunderground v.1.15,2013-01-08 17:26:00,
2013-01-08 10:31:00,47.9,28.6,30.09,East,95,1.0,4.0,47,0.00,,,0.00,Wunderground v.1.15,2013-01-08 17:31:00,
2013-01-08 10:36:00,48.3,29.0,30.09,East,95,0.0,5.0,47,0.00,,,0.00,Wunderground v.1.15,2013-01-08 17:36:00,
2013-01-08 10:41:00,48.9,28.5,30.09,East,95,0.0,2.0,45,0.00,,,0.00,Wunderground v.1.15,2013-01-08 17:41:00,
2013-01-08 10:46:00,49.3,28.3,30.09,East,95,0.0,5.0,44,0.00,,,0.00,Wunderground v.1.15,2013-01-08 17:46:00,
2013-01-08 10:51:00,49.7,28.1,30.09,East,96,2.0,4.0,43,0.00,,,0.00,Wunderground v.1.15,2013-01-08 17:51:00,
2013-01-08 10:56:00,50.0,28.4,30.09,East,96,0.0,4.0,43,0.00,,,0.00,Wunderground v.1.15,2013-01-08 17:56:00,
2013-01-08 11:01:00,50.5,28.8,30.09,East,96,2.0,4.0,43,0.00,,,0.00,Wunderground v.1.15,2013-01-08 18:01:00,
2013-01-08 11:06:00,50.8,28.5,30.09,East,96,0.0,4.0,42,0.00,,,0.00,Wunderground v.1.15,2013-01-08 18:06:00,
2013-01-08 11:11:00,50.8,27.9,30.09,East,91,0.0,2.0,41,0.00,,,0.00,Wunderground v.1.15,2013-01-08 18:11:00,
2013-01-08 11:16:00,50.9,28.6,30.09,East,92,0.0,4.0,42,0.00,,,0.00,Wunderground v.1.15,2013-01-08 18:16:00,
2013-01-08 11:21:00,51.4,29.1,30.09,East,91,4.0,4.0,42,0.00,,,0.00,Wunderground v.1.15,2013-01-08 18:21:00,
2013-01-08 11:26:00,51.9,28.9,30.09,East,91,4.0,4.0,41,0.00,,,0.00,Wunderground v.1.15,2013-01-08 18:26:00,
2013-01-08 11:31:00,52.0,29.0,30.08,East,80,0.0,2.0,41,0.00,,,0.00,Wunderground v.1.15,2013-01-08 18:31:00,
2013-01-08 11:36:00,52.3,29.3,30.08,East,80,0.0,3.0,41,0.00,,,0.00,Wunderground v.1.15,2013-01-08 18:36:00,
2013-01-08 11:41:00,52.6,28.3,30.08,East,80,4.0,4.0,39,0.00,,,0.00,Wunderground v.1.15,2013-01-08 18:41:00,
2013-01-08 11:46:00,52.6,28.3,30.07,East,80,2.0,4.0,39,0.00,,,0.00,Wunderground v.1.15,2013-01-08 18:46:00,
2013-01-08 11:51:00,52.8,28.5,30.07,East,80,4.0,4.0,39,0.00,,,0.00,Wunderground v.1.15,2013-01-08 18:51:00,
2013-01-08 11:56:00,52.9,28.0,30.07,East,80,3.0,4.0,38,0.00,,,0.00,Wunderground v.1.15,2013-01-08 18:56:00,
2013-01-08 12:02:00,53.2,28.2,30.06,NE,56,3.0,3.0,38,0.00,,,0.00,Wunderground v.1.15,2013-01-08 19:02:00,
2013-01-08 12:07:00,53.3,27.7,30.06,NE,56,1.0,4.0,37,0.00,,,0.00,Wunderground v.1.15,2013-01-08 19:07:00,
2013-01-08 12:12:00,53.6,27.3,30.06,NE,56,0.0,3.0,36,0.00,,,0.00,Wunderground v.1.15,2013-01-08 19:12:00,
2013-01-08 12:17:00,54.3,27.9,30.06,NE,56,0.0,3.0,36,0.00,,,0.00,Wunderground v.1.15,2013-01-08 19:17:00,
2013-01-08 12:22:00,54.6,27.5,30.05,NE,56,0.0,2.0,35,0.00,,,0.00,Wunderground v.1.15,2013-01-08 19:22:00,
2013-01-08 12:27:00,54.8,27.6,30.06,NE,56,0.0,5.0,35,0.00,,,0.00,Wunderground v.1.15,2013-01-08 19:27:00,
2013-01-08 12:32:00,54.9,27.7,30.06,NE,56,2.0,3.0,35,0.00,,,0.00,Wunderground v.1.15,2013-01-08 19:32:00,
2013-01-08 12:37:00,55.1,27.9,30.05,NE,56,0.0,3.0,35,0.00,,,0.00,Wunderground v.1.15,2013-01-08 19:37:00,
2013-01-08 12:42:00,55.2,27.3,30.05,NE,56,0.0,3.0,34,0.00,,,0.00,Wunderground v.1.15,2013-01-08 19:42:00,
2013-01-08 12:47:00,55.7,27.7,30.05,NE,56,0.0,3.0,34,0.00,,,0.00,Wunderground v.1.15,2013-01-08 19:47:00,
2013-01-08 12:52:00,56.5,28.4,30.05,NE,56,2.0,2.0,34,0.00,,,0.00,Wunderground v.1.15,2013-01-08 19:52:00,
2013-01-08 12:57:00,56.9,28.1,30.05,NE,56,0.0,2.0,33,0.00,,,0.00,Wunderground v.1.15,2013-01-08 19:57:00,
2013-01-08 13:02:00,57.5,27.8,30.05,NE,56,4.0,4.0,32,0.00,,,0.00,Wunderground v.1.15,2013-01-08 20:02:00,
2013-01-08 13:07:00,57.6,27.2,30.05,NE,56,0.0,4.0,31,0.00,,,0.00,Wunderground v.1.15,2013-01-08 20:07:00,
2013-01-08 13:12:00,57.8,26.5,30.04,NE,56,2.0,3.0,30,0.00,,,0.00,Wunderground v.1.15,2013-01-08 20:12:00,
2013-01-08 13:17:00,57.8,26.5,30.04,NE,56,0.0,3.0,30,0.00,,,0.00,Wunderground v.1.15,2013-01-08 20:17:00,
2013-01-08 13:22:00,58.2,26.9,30.04,NE,56,0.0,2.0,30,0.00,,,0.00,Wunderground v.1.15,2013-01-08 20:22:00,
2013-01-08 13:27:00,58.4,26.2,30.04,NE,37,4.0,5.0,29,0.00,,,0.00,Wunderground v.1.15,2013-01-08 20:27:00,
2013-01-08 13:32:00,58.6,26.4,30.04,NNE,22,5.0,5.0,29,0.00,,,0.00,Wunderground v.1.15,2013-01-08 20:32:00,
2013-01-08 13:37:00,58.9,26.7,30.03,North,5,4.0,6.0,29,0.00,,,0.00,Wunderground v.1.15,2013-01-08 20:37:00,
2013-01-08 13:42:00,59.5,26.3,30.03,NNW,345,4.0,8.0,28,0.00,,,0.00,Wunderground v.1.15,2013-01-08 20:42:00,
2013-01-08 13:47:00,59.9,26.7,30.03,NNW,328,0.0,9.0,28,0.00,,,0.00,Wunderground v.1.15,2013-01-08 20:47:00,
2013-01-08 13:52:00,60.3,26.1,30.03,NW,323,2.0,9.0,27,0.00,,,0.00,Wunderground v.1.15,2013-01-08 20:52:00,
2013-01-08 13:57:00,60.7,25.6,30.03,NW,310,5.0,9.0,26,0.00,,,0.00,Wunderground v.1.15,2013-01-08 20:57:00,
2013-01-08 14:02:00,61.0,25.8,30.03,NW,309,6.0,8.0,26,0.00,,,0.00,Wunderground v.1.15,2013-01-08 21:02:00,
2013-01-08 14:07:00,61.3,24.2,30.02,NW,306,1.0,9.0,24,0.00,,,0.00,Wunderground v.1.15,2013-01-08 21:07:00,
2013-01-08 14:13:00,61.6,24.4,30.02,WNW,301,6.0,11.0,24,0.00,,,0.00,Wunderground v.1.15,2013-01-08 21:13:00,
2013-01-08 14:17:00,61.7,24.5,30.02,WNW,297,9.0,12.0,24,0.00,,,0.00,Wunderground v.1.15,2013-01-08 21:17:00,
2013-01-08 14:23:00,61.8,23.6,30.02,WNW,297,4.0,11.0,23,0.00,,,0.00,Wunderground v.1.15,2013-01-08 21:23:00,
2013-01-08 14:27:00,61.9,23.6,30.02,WNW,298,6.0,11.0,23,0.00,,,0.00,Wunderground v.1.15,2013-01-08 21:27:00,
2013-01-08 14:32:00,61.6,23.4,30.02,NW,304,7.0,12.0,23,0.00,,,0.00,Wunderground v.1.15,2013-01-08 21:32:00,
2013-01-08 14:37:00,61.3,24.2,30.02,NW,304,11.0,12.0,24,0.00,,,0.00,Wunderground v.1.15,2013-01-08 21:37:00,
2013-01-08 14:42:00,61.1,25.0,30.02,NW,304,2.0,11.0,25,0.00,,,0.00,Wunderground v.1.15,2013-01-08 21:42:00,
2013-01-08 14:48:00,61.3,24.2,30.02,WNW,303,1.0,11.0,24,0.00,,,0.00,Wunderground v.1.15,2013-01-08 21:48:00,
2013-01-08 14:52:00,61.4,25.2,30.02,NW,308,2.0,11.0,25,0.00,,,0.00,Wunderground v.1.15,2013-01-08 21:52:00,
2013-01-08 14:57:00,61.6,23.4,30.02,NW,308,2.0,11.0,23,0.00,,,0.00,Wunderground v.1.15,2013-01-08 21:57:00,
2013-01-08 15:02:00,61.5,24.3,30.02,NW,306,6.0,11.0,24,0.00,,,0.00,Wunderground v.1.15,2013-01-08 22:02:00,
2013-01-08 15:07:00,61.6,24.4,30.02,NW,306,4.0,11.0,24,0.00,,,0.00,Wunderground v.1.15,2013-01-08 22:07:00,
2013-01-08 15:12:00,61.6,24.4,30.02,WNW,300,6.0,11.0,24,0.00,,,0.00,Wunderground v.1.15,2013-01-08 22:12:00,
2013-01-08 15:17:00,61.4,24.2,30.02,WNW,303,6.0,11.0,24,0.00,,,0.00,Wunderground v.1.15,2013-01-08 22:17:00,
2013-01-08 15:22:00,61.3,24.2,30.02,WNW,302,7.0,9.0,24,0.00,,,0.00,Wunderground v.1.15,2013-01-08 22:22:00,
2013-01-08 15:27:00,61.2,23.1,30.02,WNW,300,4.0,9.0,23,0.00,,,0.00,Wunderground v.1.15,2013-01-08 22:27:00,
2013-01-08 15:32:00,61.1,24.0,30.03,WNW,300,5.0,8.0,24,0.00,,,0.00,Wunderground v.1.15,2013-01-08 22:32:00,
2013-01-08 15:37:00,61.2,23.1,30.03,WNW,301,1.0,8.0,23,0.00,,,0.00,Wunderground v.1.15,2013-01-08 22:37:00,
2013-01-08 15:42:00,61.2,23.1,30.03,WNW,301,6.0,7.0,23,0.00,,,0.00,Wunderground v.1.15,2013-01-08 22:42:00,
2013-01-08 15:47:00,61.2,23.1,30.02,WNW,301,2.0,8.0,23,0.00,,,0.00,Wunderground v.1.15,2013-01-08 22:47:00,
2013-01-08 15:52:00,61.1,21.9,30.02,WNW,303,4.0,7.0,22,0.00,,,0.00,Wunderground v.1.15,2013-01-08 22:52:00,
2013-01-08 15:57:00,61.1,23.0,30.02,WNW,303,0.0,7.0,23,0.00,,,0.00,Wunderground v.1.15,2013-01-08 22:57:00,
2013-01-08 16:02:00,61.1,23.0,30.02,WNW,303,0.0,7.0,23,0.00,,,0.00,Wunderground v.1.15,2013-01-08 23:02:00,
2013-01-08 16:07:00,61.3,23.1,30.02,WNW,303,5.0,7.0,23,0.00,,,0.00,Wunderground v.1.15,2013-01-08 23:07:00,
2013-01-08 16:12:00,61.1,23.0,30.02,WNW,303,5.0,8.0,23,0.00,,,0.00,Wunderground v.1.15,2013-01-08 23:12:00,
2013-01-08 16:17:00,60.8,22.7,30.02,NW,304,9.0,9.0,23,0.00,,,0.00,Wunderground v.1.15,2013-01-08 23:17:00,
2013-01-08 16:22:00,60.7,23.7,30.02,NW,304,2.0,7.0,24,0.00,,,0.00,Wunderground v.1.15,2013-01-08 23:22:00,
2013-01-08 16:27:00,60.5,22.5,30.02,NW,304,4.0,7.0,23,0.00,,,0.00,Wunderground v.1.15,2013-01-08 23:27:00,
2013-01-08 16:32:00,60.4,23.4,30.02,NW,306,6.0,8.0,24,0.00,,,0.00,Wunderground v.1.15,2013-01-08 23:32:00,
2013-01-08 16:38:00,60.2,24.2,30.02,NW,306,2.0,8.0,25,0.00,,,0.00,Wunderground v.1.15,2013-01-08 23:38:00,
2013-01-08 16:43:00,60.1,24.1,30.02,NW,306,2.0,8.0,25,0.00,,,0.00,Wunderground v.1.15,2013-01-08 23:43:00,
2013-01-08 16:48:00,59.8,22.9,30.02,NW,306,7.0,9.0,24,0.00,,,0.00,Wunderground v.1.15,2013-01-08 23:48:00,
2013-01-08 16:53:00,59.5,22.6,30.02,NW,306,4.0,8.0,24,0.00,,,0.00,Wunderground v.1.15,2013-01-08 23:53:00,
2013-01-08 16:58:00,59.2,23.4,30.02,NW,306,1.0,8.0,25,0.00,,,0.00,Wunderground v.1.15,2013-01-08 23:58:00,
2013-01-08 17:03:00,58.9,23.1,30.02,NW,306,2.0,4.0,25,0.00,,,0.00,Wunderground v.1.15,2013-01-09 00:03:00,
2013-01-08 17:08:00,58.6,22.8,30.03,NW,306,4.0,6.0,25,0.00,,,0.00,Wunderground v.1.15,2013-01-09 00:08:00,
2013-01-08 17:13:00,58.2,22.5,30.02,NW,306,4.0,5.0,25,0.00,,,0.00,Wunderground v.1.15,2013-01-09 00:13:00,
2013-01-08 17:18:00,57.8,22.2,30.03,NW,306,0.0,5.0,25,0.00,,,0.00,Wunderground v.1.15,2013-01-09 00:18:00,
2013-01-08 17:23:00,57.5,22.8,30.03,NW,306,0.0,2.0,26,0.00,,,0.00,Wunderground v.1.15,2013-01-09 00:23:00,
2013-01-08 17:28:00,57.1,22.5,30.03,NW,306,0.0,4.0,26,0.00,,,0.00,Wunderground v.1.15,2013-01-09 00:28:00,
2013-01-08 17:33:00,56.7,23.0,30.03,NW,306,0.0,1.0,27,0.00,,,0.00,Wunderground v.1.15,2013-01-09 00:33:00,
2013-01-08 17:38:00,56.1,23.4,30.03,NW,306,0.0,1.0,28,0.00,,,0.00,Wunderground v.1.15,2013-01-09 00:38:00,
2013-01-08 17:43:00,55.5,22.9,30.03,NW,306,0.0,0.0,28,0.00,,,0.00,Wunderground v.1.15,2013-01-09 00:43:00,
2013-01-08 17:48:00,55.0,23.3,30.03,NW,306,0.0,0.0,29,0.00,,,0.00,Wunderground v.1.15,2013-01-09 00:48:00,
2013-01-08 17:53:00,54.4,22.8,30.03,NW,306,0.0,0.0,29,0.00,,,0.00,Wunderground v.1.15,2013-01-09 00:53:00,
2013-01-08 17:58:00,53.8,23.1,30.03,NW,306,0.0,2.0,30,0.00,,,0.00,Wunderground v.1.15,2013-01-09 00:58:00,
2013-01-08 18:03:00,53.4,22.7,30.04,NW,306,0.0,2.0,30,0.00,,,0.00,Wunderground v.1.15,2013-01-09 01:03:00,
2013-01-08 18:08:00,53.1,23.2,30.04,NW,306,0.0,2.0,31,0.00,,,0.00,Wunderground v.1.15,2013-01-09 01:08:00,
2013-01-08 18:13:00,52.8,23.7,30.04,NW,306,1.0,4.0,32,0.00,,,0.00,Wunderground v.1.15,2013-01-09 01:13:00,
2013-01-08 18:18:00,52.5,23.5,30.04,NW,306,4.0,4.0,32,0.00,,,0.00,Wunderground v.1.15,2013-01-09 01:18:00,
2013-01-08 18:23:00,52.2,23.2,30.04,NW,306,0.0,2.0,32,0.00,,,0.00,Wunderground v.1.15,2013-01-09 01:23:00,
2013-01-08 18:28:00,51.8,23.6,30.04,NW,306,0.0,2.0,33,0.00,,,0.00,Wunderground v.1.15,2013-01-09 01:28:00,
2013-01-08 18:33:00,51.5,23.3,30.05,NW,306,0.0,0.0,33,0.00,,,0.00,Wunderground v.1.15,2013-01-09 01:33:00,
2013-01-08 18:38:00,51.2,23.0,30.05,NW,306,0.0,2.0,33,0.00,,,0.00,Wunderground v.1.15,2013-01-09 01:38:00,
2013-01-08 18:43:00,51.1,23.0,30.05,NW,306,0.0,1.0,33,0.00,,,0.00,Wunderground v.1.15,2013-01-09 01:43:00,
2013-01-08 18:48:00,51.0,22.9,30.05,NW,306,0.0,1.0,33,0.00,,,0.00,Wunderground v.1.15,2013-01-09 01:48:00,
2013-01-08 18:53:00,51.0,22.9,30.06,NW,306,0.0,2.0,33,0.00,,,0.00,Wunderground v.1.15,2013-01-09 01:53:00,
2013-01-08 18:58:00,51.0,22.9,30.06,NW,306,0.0,2.0,33,0.00,,,0.00,Wunderground v.1.15,2013-01-09 01:58:00,
2013-01-08 19:03:00,50.9,23.5,30.07,NW,306,0.0,0.0,34,0.00,,,0.00,Wunderground v.1.15,2013-01-09 02:03:00,
2013-01-08 19:08:00,50.6,23.2,30.07,NW,306,0.0,0.0,34,0.00,,,0.00,Wunderground v.1.15,2013-01-09 02:08:00,
2013-01-08 19:13:00,50.4,23.1,30.07,NW,306,0.0,1.0,34,0.00,,,0.00,Wunderground v.1.15,2013-01-09 02:13:00,
2013-01-08 19:18:00,50.1,22.8,30.07,NW,306,2.0,2.0,34,0.00,,,0.00,Wunderground v.1.15,2013-01-09 02:18:00,
2013-01-08 19:23:00,49.9,23.3,30.07,NW,306,0.0,5.0,35,0.00,,,0.00,Wunderground v.1.15,2013-01-09 02:23:00,
2013-01-08 19:28:00,50.0,22.7,30.07,NW,306,0.0,5.0,34,0.00,,,0.00,Wunderground v.1.15,2013-01-09 02:28:00,
2013-01-08 19:33:00,50.1,22.8,30.07,NW,306,0.0,0.0,34,0.00,,,0.00,Wunderground v.1.15,2013-01-09 02:33:00,
2013-01-08 19:38:00,50.0,22.7,30.08,NW,306,0.0,0.0,34,0.00,,,0.00,Wunderground v.1.15,2013-01-09 02:38:00,
2013-01-08 19:43:00,49.9,22.6,30.08,NW,306,0.0,0.0,34,0.00,,,0.00,Wunderground v.1.15,2013-01-09 02:43:00,
2013-01-08 19:48:00,49.6,22.3,30.08,NW,306,0.0,2.0,34,0.00,,,0.00,Wunderground v.1.15,2013-01-09 02:48:00,
2013-01-08 19:53:00,49.4,22.9,30.08,NW,306,0.0,2.0,35,0.00,,,0.00,Wunderground v.1.15,2013-01-09 02:53:00,
2013-01-08 19:58:00,49.3,22.8,30.08,NW,306,0.0,2.0,35,0.00,,,0.00,Wunderground v.1.15,2013-01-09 02:58:00,
2013-01-08 20:03:00,49.5,22.3,30.08,NW,306,0.0,2.0,34,0.00,,,0.00,Wunderground v.1.15,2013-01-09 03:03:00,
2013-01-08 20:08:00,49.9,22.6,30.08,NW,306,5.0,5.0,34,0.00,,,0.00,Wunderground v.1.15,2013-01-09 03:08:00,
2013-01-08 20:13:00,50.1,22.8,30.08,NW,306,4.0,6.0,34,0.00,,,0.00,Wunderground v.1.15,2013-01-09 03:13:00,
2013-01-08 20:18:00,50.2,22.9,30.08,NW,306,0.0,6.0,34,0.00,,,0.00,Wunderground v.1.15,2013-01-09 03:18:00,
2013-01-08 20:23:00,50.0,22.7,30.08,NW,306,1.0,5.0,34,0.00,,,0.00,Wunderground v.1.15,2013-01-09 03:23:00,
2013-01-08 20:28:00,49.9,22.6,30.08,NW,306,0.0,5.0,34,0.00,,,0.00,Wunderground v.1.15,2013-01-09 03:28:00,
2013-01-08 20:33:00,49.9,22.6,30.08,NW,306,0.0,1.0,34,0.00,,,0.00,Wunderground v.1.15,2013-01-09 03:33:00,
2013-01-08 20:38:00,50.0,22.7,30.09,NW,306,0.0,2.0,34,0.00,,,0.00,Wunderground v.1.15,2013-01-09 03:38:00,
2013-01-08 20:43:00,49.9,22.6,30.09,NW,306,0.0,2.0,34,0.00,,,0.00,Wunderground v.1.15,2013-01-09 03:43:00,
2013-01-08 20:48:00,49.8,23.2,30.09,NW,306,0.0,2.0,35,0.00,,,0.00,Wunderground v.1.15,2013-01-09 03:48:00,
2013-01-08 20:53:00,49.6,23.0,30.10,NW,306,0.0,4.0,35,0.00,,,0.00,Wunderground v.1.15,2013-01-09 03:53:00,
2013-01-08 20:58:00,49.2,23.4,30.10,NW,306,1.0,4.0,36,0.00,,,0.00,Wunderground v.1.15,2013-01-09 03:58:00,
2013-01-08 21:03:00,48.7,22.9,30.10,NW,306,0.0,1.0,36,0.00,,,0.00,Wunderground v.1.15,2013-01-09 04:03:00,
2013-01-08 21:08:00,48.4,23.3,30.10,NW,306,0.0,1.0,37,0.00,,,0.00,Wunderground v.1.15,2013-01-09 04:08:00,
2013-01-08 21:14:00,48.1,23.0,30.10,NW,306,0.0,0.0,37,0.00,,,0.00,Wunderground v.1.15,2013-01-09 04:14:00,
2013-01-08 21:19:00,47.9,23.5,30.11,NW,306,0.0,0.0,38,0.00,,,0.00,Wunderground v.1.15,2013-01-09 04:19:00,
2013-01-08 21:24:00,47.9,23.5,30.11,NW,306,0.0,0.0,38,0.00,,,0.00,Wunderground v.1.15,2013-01-09 04:24:00,
2013-01-08 21:29:00,48.0,23.6,30.11,NW,306,0.0,0.0,38,0.00,,,0.00,Wunderground v.1.15,2013-01-09 04:29:00,
2013-01-08 21:34:00,48.0,23.6,30.11,NW,306,0.0,0.0,38,0.00,,,0.00,Wunderground v.1.15,2013-01-09 04:34:00,
2013-01-08 21:39:00,47.9,23.5,30.12,NW,306,0.0,0.0,38,0.00,,,0.00,Wunderground v.1.15,2013-01-09 04:39:00,
2013-01-08 21:44:00,47.8,23.4,30.12,NW,306,0.0,0.0,38,0.00,,,0.00,Wunderground v.1.15,2013-01-09 04:44:00,
2013-01-08 21:49:00,47.9,23.5,30.12,NW,306,0.0,0.0,38,0.00,,,0.00,Wunderground v.1.15,2013-01-09 04:49:00,
2013-01-08 21:54:00,47.7,23.3,30.12,NW,306,0.0,0.0,38,0.00,,,0.00,Wunderground v.1.15,2013-01-09 04:54:00,
2013-01-08 21:59:00,47.5,23.7,30.12,NW,306,0.0,0.0,39,0.00,,,0.00,Wunderground v.1.15,2013-01-09 04:59:00,
2013-01-08 22:00:00,47.4,23.7,30.12,NW,306,0.0,0.0,39,0.00,,,0.00,Wunderground v.1.15,2013-01-09 05:00:00,
2013-01-08 22:01:00,47.3,23.6,30.12,NW,306,0.0,0.0,39,0.00,,,0.00,Wunderground v.1.15,2013-01-09 05:01:00,
2013-01-08 22:03:00,47.2,23.5,30.12,NW,306,0.0,0.0,39,0.00,,,0.00,Wunderground v.1.15,2013-01-09 05:03:00,
2013-01-08 22:08:00,46.8,23.7,30.12,NW,306,0.0,0.0,40,0.00,,,0.00,Wunderground v.1.15,2013-01-09 05:08:00,
2013-01-08 22:13:00,46.3,23.9,30.12,NW,306,0.0,0.0,41,0.00,,,0.00,Wunderground v.1.15,2013-01-09 05:13:00,
2013-01-08 22:18:00,46.1,23.7,30.12,NW,306,2.0,5.0,41,0.00,,,0.00,Wunderground v.1.15,2013-01-09 05:18:00,
2013-01-08 22:23:00,46.3,23.9,30.12,NW,306,0.0,4.0,41,0.00,,,0.00,Wunderground v.1.15,2013-01-09 05:23:00,
2013-01-08 22:28:00,46.2,23.8,30.12,NW,306,0.0,4.0,41,0.00,,,0.00,Wunderground v.1.15,2013-01-09 05:28:00,
2013-01-08 22:33:00,46.3,23.9,30.12,NW,306,0.0,0.0,41,0.00,,,0.00,Wunderground v.1.15,2013-01-09 05:33:00,
2013-01-08 22:38:00,46.7,23.6,30.12,NW,306,0.0,0.0,40,0.00,,,0.00,Wunderground v.1.15,2013-01-09 05:38:00,
2013-01-08 22:43:00,46.9,23.8,30.12,NW,306,0.0,0.0,40,0.00,,,0.00,Wunderground v.1.15,2013-01-09 05:43:00,
2013-01-08 22:48:00,47.0,23.3,30.11,NW,306,0.0,0.0,39,0.00,,,0.00,Wunderground v.1.15,2013-01-09 05:48:00,
2013-01-08 22:53:00,46.8,23.7,30.12,NW,306,1.0,2.0,40,0.00,,,0.00,Wunderground v.1.15,2013-01-09 05:53:00,
2013-01-08 22:58:00,46.3,23.9,30.12,NW,306,0.0,2.0,41,0.00,,,0.00,Wunderground v.1.15,2013-01-09 05:58:00,
2013-01-08 23:03:00,45.9,24.6,30.12,NW,306,2.0,4.0,43,0.00,,,0.00,Wunderground v.1.15,2013-01-09 06:03:00,
2013-01-08 23:08:00,45.5,25.9,30.12,NW,306,0.0,5.0,46,0.00,,,0.00,Wunderground v.1.15,2013-01-09 06:08:00,
2013-01-08 23:13:00,45.2,25.6,30.12,NW,306,0.0,2.0,46,0.00,,,0.00,Wunderground v.1.15,2013-01-09 06:13:00,
2013-01-08 23:18:00,44.7,26.2,30.12,NW,306,1.0,4.0,48,0.00,,,0.00,Wunderground v.1.15,2013-01-09 06:18:00,
2013-01-08 23:23:00,44.3,26.3,30.13,NW,306,0.0,4.0,49,0.00,,,0.00,Wunderground v.1.15,2013-01-09 06:23:00,
2013-01-08 23:28:00,44.0,26.0,30.13,NW,306,0.0,4.0,49,0.00,,,0.00,Wunderground v.1.15,2013-01-09 06:28:00,
2013-01-08 23:33:00,43.6,26.2,30.12,NW,306,0.0,1.0,50,0.00,,,0.00,Wunderground v.1.15,2013-01-09 06:33:00,
2013-01-08 23:38:00,43.0,25.6,30.13,NW,306,0.0,1.0,50,0.00,,,0.00,Wunderground v.1.15,2013-01-09 06:38:00,
2013-01-08 23:43:00,42.4,25.5,30.13,NW,306,0.0,0.0,51,0.00,,,0.00,Wunderground v.1.15,2013-01-09 06:43:00,
2013-01-08 23:48:00,41.5,25.2,30.13,NW,306,0.0,0.0,52,0.00,,,0.00,Wunderground v.1.15,2013-01-09 06:48:00,
2013-01-08 23:53:00,41.0,25.6,30.13,NW,306,0.0,0.0,54,0.00,,,0.00,Wunderground v.1.15,2013-01-09 06:53:00,
2013-01-08 23:58:00,40.9,25.5,30.13,NW,306,2.0,4.0,54,0.00,,,0.00,Wunderground v.1.15,2013-01-09 06:58:00,